Regional Weather Roundup
Issued by NWS Charleston, WV

Home | Current Version | Previous Version | Graphics & Text | Print | Product List | Glossary Off
Versions: 1 2 3 4 5 6 7 8 9 10 11 12 13 14 15 16 17 18 19 20 21 22 23 24 25 26 27 28 29 30 31 32 33 34 35 36 37 38 39 40 41 42 43 44 45 46 47 48 49 50

000
ASUS41 KRLX 290110
RWRRLX
West Virginia Regional Weather Roundup
National Weather Service Charleston WV
900 PM EDT SUN AUG 28 2016

Note: "fair" indicates few or no clouds below 12,000 feet with no
significant weather and/or obstructions to visibility.

WVZ003-290200-
Northern Panhandle of West Virginia

CITY           SKY/WX    TMP DP  RH WIND       PRES   REMARKS
WHEELING       CLOUDY    73  65  75 SE6       30.22S
$$

WVZ009-290200-
Northwest West Virginia

CITY           SKY/WX    TMP DP  RH WIND       PRES   REMARKS
PARKERSBURG    PTCLDY    81  73  76 CALM      30.17R
$$

WVZ006-290200-
Western West Virginia

CITY           SKY/WX    TMP DP  RH WIND       PRES   REMARKS
HUNTINGTON     MOCLDY    76  68  76 NW6       30.14S
$$

WVZ015-290200-
West Central West Virginia

CITY           SKY/WX    TMP DP  RH WIND       PRES   REMARKS
CHARLESTON     MOCLDY    79  71  76 E3        30.15R
$$

WVZ022-031-290200-
North Central West Virginia

CITY           SKY/WX    TMP DP  RH WIND       PRES   REMARKS
CLARKSBURG     CLEAR     79  70  74 S3        30.17R THUNDER
MORGANTOWN     PTCLDY    82  69  64 MISG      30.21R
$$

WVZ025-035-042-045-290200-
Southern West Virginia

CITY           SKY/WX    TMP DP  RH WIND       PRES   REMARKS
BECKLEY        CLEAR     74  70  87 E3        30.24R
LOGAN            N/A     70  68  94 CALM      30.18R
BLUEFIELD      CLEAR     74  61  63 SE6       30.28R
LEWISBURG      CLEAR     71  68  91 CALM      30.25R
$$

WVZ047-290200-
Northern Mountains of West Virginia

CITY           SKY/WX    TMP DP  RH WIND       PRES   REMARKS
ELKINS         CLEAR     69  66  90 CALM      30.24R
$$

WVZ052-290200-
Eastern Panhandle of West Virginia

CITY           SKY/WX    TMP DP  RH WIND       PRES   REMARKS
MARTINSBURG    CLEAR     78  65  63 SE3       30.15R
PETERSBURG     CLEAR     77  71  82 W6        30.17R
$$




USA.gov is the U.S. government's official web portal to all federal, state and local government web resources and services.